User: anonymous   Login
Location: �clusier
(49.9361°N, 2.7869°E)
Time: 10:26:23
(UTC+00:00)
Language:

CARTOSAT-1 - Orbit

View from above orbital plane
View from above orbital plane
View from above satellite
View from above satellite

Ground track
Ground track

The orbit data is extracted from the following two-line orbital elements,

1 28649U 05017A   21267.74854020  .00000194  00000-0  29671-4 0  9993
2 28649  97.7584 331.2015 0002048  50.6618 309.4777 14.83822433887352
Epoch (UTC): 24 September 2021 17:57:53
Eccentricity: 0.0002048
inclination: 97.7584°
perigee height: 616 km
apogee height: 619 km
right ascension of ascending node: 331.2015°
argument of perigee: 50.6618°
revolutions per day: 14.83822433
mean anomaly at epoch: 309.4777°
orbit number at epoch: 88735

The dashed part of the orbit path shows where the satellite is in the earth's shadow,  

DLR